Regional Weather Roundup
Issued by NWS

Home | Current Version | Previous Version | Text Only | Print | Product List | Glossary On
Versions: 1 2 3 4 5 6 7 8 9 10 11 12 13 14 15 16 17 18 19 20 21 22 23 24 25 26 27 28 29 30 31 32 33 34 35 36 37 38 39 40 41 42 43 44 45 46 47 48 49 50
000
ASUS43 KDMX 252308
RWRIA

WEATHER ROUNDUP FOR IOWA
NATIONAL WEATHER SERVICE DES MOINES IA
600 PM CDT WED MAY 25 2016

NOTE: "FAIR" INDICATES FEW OR NO CLOUDS BELOW 12,000 FEET WITH NO
SIGNIFICANT WEATHER AND/OR OBSTRUCTIONS TO VISIBILITY.

* - THESE STATIONS ARE NOT NWS STATIONS...THUS NOT UNDER NWS
QUALITY CONTROL.  THEY ALSO DO NOT REPORT WEATHER SUCH
AS PRECIPITATION OR FOG.

IAZ001>003-012>014-020>022-031>034-043>046-260000-
   NORTHWEST IOWA

CITY           SKY/WX    TMP DP  RH WIND       PRES   REMARKS
CARROLL *      CLOUDY    77  64  65 SW9G17    29.84S
CHEROKEE *     MOSUNNY   79  61  53 S8        29.80F HX  80
DENISON *      PTSUNNY   79  63  57 S10       29.81F HX  80
LE MARS *      MOSUNNY   82  59  44 W7G16     29.79F HX  82
ORANGE CITY *  SUNNY     81  63  54 SW3       29.79F HX  82
SHELDON *      MOSUNNY   79  61  53 S12       29.79S HX  80
SIOUX CITY     CLOUDY    80  63  55 SW9       29.78F HX  81
SPENCER        MOSUNNY   80  58  46 SW9       29.81S HX  80
STORM LAKE *   MOSUNNY   81  59  47 SW10G18   29.82F HX  81
$$

IAZ055>058-069>071-079>083-090>094-260000-
   SOUTHWEST IOWA

CITY           SKY/WX    TMP DP  RH WIND       PRES   REMARKS
ATLANTIC *     CLOUDY    77  66  69 SW9       29.85R
AUDUBON *        N/A     75  66  73 CALM      29.86S
CLARINDA *       N/A     77  68  73 MISG      29.86S
COUNCIL BLFS * CLOUDY    75  66  73 SW9       29.84S
CRESTON *      CLOUDY    77  64  65 SW9       29.88R
HARLAN  *      CLOUDY    75  66  73 SW12      29.87S
LAMONI         PTSUNNY   77  65  66 SW12      29.87R
RED OAK *      CLOUDY    77  66  69 SW10      29.84F
SHENANDOAH *   CLOUDY    79  68  69 SW13      29.84F HX  81
$$

IAZ047>049-059>061-072>074-084-260000-
   CENTRAL IOWA

CITY           SKY/WX    TMP DP  RH WIND       PRES   REMARKS
AMES           MOSUNNY   77  62  59 SW7       29.85S
ANKENY *       MOSUNNY   79  64  61 SW7       29.85S HX  81
BOONE *        CLOUDY    77  64  65 SW9       29.85S
CHARITON *     SUNNY     81  63  54 W10       29.86S HX  82
DES MOINES     MOSUNNY   78  62  57 CALM      29.85F HX  80
GRINNELL*      SUNNY     81  59  47 SW9       29.87F HX  81
KNOXVILLE *    PTSUNNY   81  63  54 S12G20    29.84S HX  82
MARSHALLTOWN   SUNNY     79  61  53 SW13      29.85S HX  80
NEWTON *       SUNNY     81  61  50 SW9       29.86S HX  81
PELLA *        MOSUNNY   82  61  47 S3        29.86F HX  83
PERRY *        CLOUDY    79  64  61 S7        29.85F HX  81
$$

IAZ004>006-015-016-023>025-035-036-260000-
   NORTH CENTRAL IOWA

CITY           SKY/WX    TMP DP  RH WIND       PRES   REMARKS
ALGONA *       MOSUNNY   82  55  39 W15       29.81S HX  82
CLARION *      SUNNY     79  66  65 S13       29.83S HX  81
ESTHERVILLE    SUNNY     80  58  46 SW12G22   29.81S HX  80
FORT DODGE *   PTSUNNY   81  61  50 SW8       29.83S HX  81
MASON CITY     CLOUDY    78  65  63 SW10      29.83F HX  80
FOREST CITY *  MOSUNNY   77  61  57 S10       29.82S
WEBSTER CITY * MOSUNNY   81  63  54 SW13G18   29.82S HX  82
IOWA FALLS *   PTSUNNY   79  63  57 S13       29.86S HX  80
$$

IAZ007>011-017>019-026>030-037>042-050>054-066-260000-
   NORTHEAST IOWA

CITY           SKY/WX    TMP DP  RH WIND       PRES   REMARKS
CEDAR RAPIDS   MOSUNNY   82  61  48 SW14G23   29.84F HX  83
CHARLES CITY * PTSUNNY   79  63  57 SW12      29.84S HX  80
CLINTON *      PTSUNNY   83  60  45 SW16      29.85F HX  83
DECORAH *      SUNNY     77  64  65 VRB5      29.83F
DUBUQUE        CLOUDY    78  59  51 SW16G23   29.84F
MONTICELLO *   SUNNY     81  61  50 SW13G22   29.84S HX  81
OELWEIN *      MOSUNNY   81  63  54 SW16G23   29.84F HX  82
WATERLOO       MOSUNNY   81  59  47 SW12      29.83S HX  81
$$

IAZ064-065-067-068-078-260000-
   EAST CENTRAL IOWA

CITY           SKY/WX    TMP DP  RH WIND       PRES   REMARKS
DAVENPORT      CLOUDY    83  56  39 SW13      29.86F HX  82
IOWA CITY      MOSUNNY   83  58  42 S12       29.87S HX  83
MT. PLEASANT * CLOUDY    86  61  42 SW15      29.86F HX  86
MUSCATINE *    SUNNY     84  59  42 SW15      29.85F HX  84
QUAD CITIES    CLOUDY    84  58  40 SW9       29.84F HX  83
$$

IAZ062-063-075>077-085>089-095>099-260000-
   SOUTHEAST IOWA

CITY           SKY/WX    TMP DP  RH WIND       PRES   REMARKS
BURLINGTON     PTSUNNY   83  64  52 SW15      29.85F HX  84
FAIRFIELD *      N/A    N/A N/A N/A MISG        N/A
FORT MADISON * MOSUNNY   82  64  54 SW8       29.87F HX  84
KEOKUK *       MOSUNNY   82  63  51 S13G20    29.85F HX  83
OSKALOOSA *      N/A     82  61  47 S10G16    29.86F HX  83
OTTUMWA        SUNNY     81  62  52 S9        29.86F HX  82
WASHINGTON *   SUNNY     84  70  61 SW15      29.87F HX  88
$$

ABBREVIATIONS USED IN REMARKS
   TC - TEMPERATURES IN CELSIUS
  WCI - WIND CHILL INDEX
   HX - HEAT INDEX
  VSB - VISIBILITY
$$





USA.gov is the U.S. government's official web portal to all federal, state and local government web resources and services.